Location: Chin
(49.7667°N, 112.4500°W)
Time: 12:54:28
(UTC+00:00)

N. Korean satellite - Pass Details

Date: 06 December 2021
Orbit: 447 x 490 km, 97.3° (Epoch: 27 January)

Event Time Altitude Azimuth Distance (km) Brightness Sun altitude
Rises 11:42:17 0° 31° (NNE) 2,465 10.6 -32.8°
Reaches altitude 10° 11:45:20 10° 62° (ENE) 1,583 9.9 -32.3°
Maximum altitude 11:46:52 13° 90° (E) 1,428 9.7 -32.1°
Drops below altitude 10° 11:48:24 10° 117° (ESE) 1,576 9.8 -31.8°
Sets 11:51:25 0° 148° (SSE) 2,442 10.5 -31.3°
